Weather in Bolshaya Kosha

Russia / Tver Oblast     56°44′25″N   33°43′23″E
В апреле 2022 года жителям России запретили посещать сайт meteo.paraplan.net по решению Генеральной прокуратуры. Аудитория сайта уменьшилась в 10 раз. Владельцы сайта не видят смысла в поддержке погодного сервера в таких условиях. Сайт будет закрыт в октябре.
temp.,
°C
wind,
m/s
gust,
m/s
humid.,
%
clouds,
%
prec.,
mm/h
press.,
hPa
HPBL,
m
30 september, fri
fri3000:00+10ssw41195100 1.4 1009710
03:00+9s3798100 2.8 1010353
06:00+9s3799100 4.4 1010355
09:00+9s2599100 6.7 1011252
12:00+10ssw2493100 0.0 1012441
15:00+11sw2591100 0.1 1013429
18:00+11ssw2382100 0.1 101473
21:00+8w229499 0.1 101621
1 october, sat
sat100:00+6wsw119358 0.0 101710
03:00+5nw119347 0.0 101710
06:00+5e119398 0.0 101710
09:00+8e1286100 0.0 1016134
12:00+11ene3475100 0.0 1014527
15:00+8ene41095100 3.8 1011575
18:00+9ene51298100 9.9 1007622
21:00+9ne3898100 14.4 1004305
2 october, sun
sun200:00+9nw2599100 0.8 1004310
03:00+7nw41095100 0.8 1005620
06:00+7nw4896100 0.0 1006700
09:00+7wnw3796100 0.1 1007537
12:00+7nw3694100 0.1 1008413
15:00+8n2687100 0.1 1008581
18:00+7n1493100 0.0 1009288
21:00+7nne2792100 0.0 1008437
3 october, mon
mon300:00+6nne3794100 0.0 1007501
03:00+6nne3996100 1.7 1005588
06:00+6n4996100 7.0 1003562
09:00+6nnw51097100 16.1 1001623
12:00+6nnw51196100 5.4 999701
15:00+5nw51195100 7.8 997648
18:00+5wnw51096100 5.2 996764
21:00+3w41197100 10.8 997626
4 october, tue
tue400:00+3wsw41097100 0.9 998688
03:00+4sw5897100 2.4 10001120
06:00+4sw5997100 0.6 1001911
09:00+4ssw5991100 0.8 1003927
12:00+5ssw51093100 0.0 1006869
15:00+7sw41088100 0.1 10071213
18:00+7ssw3987100 0.1 1009476
21:00+6ssw31189100 0.1 1011395